Regional Weather Roundup
Issued by NWS

Home | Current Version | Previous Version | Text Only | Print | Product List | Glossary Off
Versions: 1 2 3 4 5 6 7 8 9 10 11 12 13 14 15 16 17 18 19 20 21 22 23 24 25 26 27 28 29 30 31 32 33 34 35 36 37 38 39 40 41 42 43 44 45 46 47 48 49 50

000
ASUS43 KBIS 231220
RWRND

NORTH DAKOTA REGIONAL WEATHER ROUNDUP
NATIONAL WEATHER SERVICE BISMARCK ND
700 AM CDT SAT AUG 23 2014

NOTE: "FAIR" INDICATES FEW OR NO CLOUDS BELOW 12,000 FEET WITH NO
SIGNIFICANT WEATHER AND/OR OBSTRUCTIONS TO VISIBILITY.


NDZ001>003-009>011-017-231300-
NORTHWEST NORTH DAKOTA

CITY           SKY/WX    TMP DP  RH WIND       PRES   REMARKS
WILLISTON      CLOUDY    58  52  80 NE16      30.07F
6HR MIN TEMP:  58; 6HR MAX TEMP:  63; 6HR PCP: TRACE;

MINOT          CLOUDY    56  54  93 N10       30.09F
MINOT AFB      CLOUDY    56  56  99 NE12      30.09F
$$

NDZ018>021-031>035-040>046-231300-
SOUTHWEST NORTH DAKOTA

CITY           SKY/WX    TMP DP  RH WIND       PRES   REMARKS
BISMARCK       CLOUDY    62  58  86 NE16      30.03S
6HR MIN TEMP:  62; 6HR MAX TEMP:  65;

DICKINSON      LGT RAIN  59  58  96 E20       30.00R FOG
GARRISON         N/A     58  56  93 E13       30.07R
6HR MIN TEMP:  58; 6HR MAX TEMP:  63;

HETTINGER ARPT LGT RAIN  62  60  93 E18G26    29.97F
$$

NDZ004>008-012>016-024-026-027-054-231300-
NORTHEAST NORTH DAKOTA

CITY           SKY/WX    TMP DP  RH WIND       PRES   REMARKS
GRAND FORKS    CLOUDY    61  59  94 N13       30.05S
GRND FRKS AFB  CLOUDY    59  59 100 N10       30.07S
DEVILS LAKE    CLOUDY    57  52  82 NE15      30.07S
$$

NDZ022-023-025-028>030-036>039-047>053-231300-
SOUTHEAST NORTH DAKOTA

CITY           SKY/WX    TMP DP  RH WIND       PRES   REMARKS
FARGO          FOG       65  64  97 NE7       30.01S VSB 3/4
6HR MIN TEMP:  64; 6HR MAX TEMP:  67;

JAMESTOWN      CLOUDY    61  59  93 NE10      30.04S FOG
$$




USA.gov is the U.S. government's official web portal to all federal, state and local government web resources and services.